EW1517 Weather Reports


Display with metric or nautical units.
time (UTC)temp
F
wind
direction
speed
MPH
gust
MPH
rain 1hr
in
rain 24hr
in
rain mn
in
humidity
%
barometer
mb
20260503003845 69 98 7.0 15.0 0.03 0.06 0.07 88 1018.1
20260503003702 69 85 9.0 15.0 0.03 0.06 0.07 88 1018.2
20260503002839 69 106 9.0 14.0 0.04 0.06 0.07 88 1018.2
20260503002338 69 80 10.0 14.0 0.04 0.06 0.07 89 1018.2
20260503001838 69 115 6.0 11.0 0.03 0.06 0.06 89 1018.1
20260503001333 69 115 4.0 11.0 0.03 0.06 0.06 89 1018.1
20260503000831 69 100 6.0 14.0 0.03 0.06 0.06 88 1018.2
20260503000331 69 107 7.0 14.0 0.02 0.06 0.06 88 1018.1
20260502235832 69 96 6.0 11.0 0.02 0.03 0.06 88 1018.1
20260502235332 69 110 7.0 11.0 0.02 0.03 0.05 87 1018.1
20260502234830 69 115 7.0 11.0 0.02 0.03 0.05 87 1018.1
20260502234330 70 107 5.0 10.0 0.01 0.03 0.04 87 1018.0
20260502233832 70 110 7.0 10.0 0.01 0.03 0.04 87 1018.0
20260502233331 70 124 6.0 10.0 0.01 0.03 0.03 87 1018.0
20260502233200 70 117 6.0 11.0 0.01 0.03 0.03 87 1017.9
20260502232331 70 146 4.0 12.0 0.01 0.03 0.03 87 1017.9
20260502232205 70 119 7.0 12.0 0.01 0.03 0.03 87 1017.8
20260502231748 70 113 6.0 13.0 0.01 0.03 0.03 87 1017.8
20260502230832 70 118 7.0 13.0 0.01 0.03 0.03 87 1017.7
20260502230719 70 119 7.0 12.0 0.01 0.03 0.03 88 1017.7
20260502225832 70 124 6.0 12.0 0.01 0.02 0.03 88 1017.7
20260502225332 70 107 4.0 9.0 0.01 0.02 0.03 89 1017.5
20260502224832 70 103 5.0 7.0 0.01 0.02 0.03 89 1017.5
20260502224733 70 111 3.0 8.0 0.01 0.02 0.03 89 1017.5
20260502223831 70 126 5.0 9.0 0.01 0.02 0.03 89 1017.5
20260502223331 70 117 4.0 9.0 0.00 0.02 0.02 89 1017.5
20260502223150 70 136 3.0 7.0 0.00 0.02 0.02 89 1017.6
20260502222648 70 147 3.0 7.0 0.00 0.02 0.02 90 1017.6
20260502221832 70 135 4.0 7.0 0.00 0.02 0.02 90 1017.6
20260502221330 70 148 2.0 6.0 0.00 0.02 0.02 91 1017.6
20260502220834 70 152 3.0 6.0 0.00 0.02 0.02 91 1017.6
20260502220748 70 154 2.0 4.0 0.00 0.02 0.02 92 1017.5
20260502220416 70 155 3.0 6.0 0.00 0.02 0.02 91 1017.6
20260502215445 69 151 2.0 4.0 0.00 0.02 0.02 92 1017.5
20260502215420 70 153 2.0 4.0 0.00 0.02 0.02 92 1017.6
20260502214722 69 151 2.0 4.0 0.01 0.02 0.02 92 1017.5
20260502213832 70 149 2.0 4.0 0.02 0.02 0.02 92 1017.5
20260502213332 69 148 2.0 3.0 0.02 0.02 0.02 92 1017.2
20260502212830 69 148 0.0 3.0 0.02 0.02 0.02 93 1017.2
20260502212333 69 148 2.0 3.0 0.02 0.02 0.02 92 1017.2
20260502211824 69 148 2.0 4.0 0.02 0.02 0.02 92 1017.3
20260502211320 69 148 1.0 5.0 0.02 0.02 0.02 92 1017.3
20260502210820 69 153 3.0 6.0 0.02 0.02 0.02 92 1017.5
20260502210315 70 154 3.0 6.0 0.02 0.02 0.02 91 1017.5
20260502205810 70 148 4.0 6.0 0.02 0.00 0.02 91 1017.5
20260502205311 70 154 3.0 8.0 0.02 0.00 0.02 90 1017.6
20260502205129 70 150 5.0 8.0 0.02 0.00 0.02 89 1017.7
20260502204305 70 109 2.0 9.0 0.02 0.00 0.02 89 1017.7
20260502203803 70 105 4.0 9.0 0.01 0.00 0.01 89 1017.6
20260502203305 70 98 6.0 9.0 0.01 0.00 0.01 88 1017.6
20260502202804 70 102 3.0 8.0 0.01 0.00 0.01 88 1017.6
20260502202305 70 71 2.0 8.0 0.01 0.00 0.01 88 1017.6
20260502202026 70 350 4.0 7.0 0.00 0.00 0.00 88 1017.5
20260502201927 70 131 2.0 7.0 0.01 0.00 0.01 88 1017.5
20260502200804 70 92 1.0 9.0 0.00 0.00 0.00 88 1017.5
20260502200637 70 314 4.0 9.0 0.00 0.00 0.00 88 1017.5
20260502195804 70 36 2.0 11.0 0.00 0.00 0.00 89 1017.6
20260502195305 70 309 5.0 11.0 0.00 0.00 0.00 89 1017.3
20260502195138 70 325 5.0 11.0 0.00 0.00 0.00 89 1017.2
20260502194450 70 105 14.0 23.0 0.00 0.00 0.00 87 1017.0
20260502194443 70 62 5.0 20.0 0.00 0.00 0.00 88 1017.6
20260502194355 70 300 2.0 18.0 0.00 0.00 0.00 89 1017.5
20260502193658 71 96 13.0 26.0 0.00 0.00 0.00 86 1016.9
20260502193318 70 70 11.0 23.0 0.00 0.00 0.00 87 1017.3
20260502192018 73 68 16.0 32.0 0.00 0.00 0.00 83 1017.2
20260502191923 71 91 15.0 26.0 0.00 0.00 0.00 84 1017.0
20260502190804 73 71 20.0 32.0 0.00 0.00 0.00 80 1017.0
20260502190306 75 80 14.0 28.0 0.00 0.00 0.00 79 1017.1
20260502185805 75 69 14.0 24.0 0.00 0.00 0.00 77 1017.2
20260502185306 76 80 17.0 29.0 0.00 0.00 0.00 76 1017.2
20260502184805 76 69 15.0 29.0 0.00 0.00 0.00 75 1017.6
20260502184304 77 102 15.0 27.0 0.00 0.00 0.00 74 1017.1
20260502183803 78 190 15.0 22.0 0.00 0.00 0.00 71 1017.0
20260502183408 80 83 13.0 23.0 0.00 0.00 0.00 67 1017.2
20260502183338 80 59 10.0 21.0 0.00 0.00 0.00 69 1017.3
20260502182305 79 92 12.0 23.0 0.00 0.00 0.00 67 1017.3
20260502181807 79 78 10.0 23.0 0.00 0.00 0.00 69 1017.3
20260502181305 79 92 13.0 26.0 0.00 0.00 0.00 71 1017.7
20260502181217 78 67 15.0 26.0 0.00 0.00 0.00 71 1017.7
20260502180302 80 113 13.0 20.0 0.00 0.00 0.00 71 1017.7
20260502180157 79 89 12.0 23.0 0.00 0.00 0.00 71 1017.8
20260502170304 79 64 10.0 23.0 0.00 0.00 0.00 68 1018.6
20260502170150 80 36 15.0 24.0 0.00 0.00 0.00 68 1018.5
20260502164304 80 70 11.0 20.0 0.00 0.00 0.00 64 1018.6
20260502163804 80 67 11.0 20.0 0.00 0.00 0.00 64 1018.7
20260502163302 80 59 10.0 20.0 0.00 0.00 0.00 63 1018.6
20260502162802 80 67 12.0 20.0 0.00 0.00 0.00 61 1018.7
20260502162305 81 86 11.0 22.0 0.00 0.00 0.00 64 1018.7
20260502161803 81 89 11.0 22.0 0.00 0.00 0.00 63 1018.8
20260502161302 81 72 13.0 18.0 0.00 0.00 0.00 63 1018.9
20260502160803 81 84 9.0 18.0 0.00 0.00 0.00 64 1018.9
20260502160303 81 99 10.0 17.0 0.00 0.00 0.00 63 1018.9
20260502151805 77 56 14.0 20.0 0.00 0.00 0.00 73 1019.0
20260502151304 77 97 9.0 19.0 0.00 0.00 0.00 74 1019.1
20260502150804 77 98 9.0 21.0 0.00 0.00 0.00 73 1019.2
20260502150304 77 42 10.0 21.0 0.00 0.00 0.00 74 1019.2
20260502140125 75 108 8.0 17.0 0.00 0.00 0.00 77 1018.7
20260502130303 72 147 5.0 10.0 0.00 0.00 0.00 80 1018.2
20260502123802 71 159 4.0 9.0 0.00 0.00 0.00 83 1017.7
20260502123304 71 116 3.0 9.0 0.00 0.00 0.00 84 1017.6
20260502123127 71 151 4.0 9.0 0.00 0.00 0.00 86 1017.7
20260502122306 70 150 4.0 6.0 0.00 0.00 0.00 87 1017.7
20260502121802 70 123 3.0 5.0 0.00 0.00 0.00 87 1017.7
20260502121609 70 121 2.0 7.0 0.00 0.00 0.00 88 1017.8
20260502120757 69 119 4.0 7.0 0.00 0.00 0.00 88 1017.7
20260502120257 69 101 2.0 4.0 0.00 0.00 0.00 89 1017.7
20260502115755 69 98 2.0 6.0 0.00 0.00 0.00 90 1017.9
20260502115250 69 97 3.0 9.0 0.00 0.00 0.00 90 1018.0
20260502114745 69 94 4.0 9.0 0.00 0.00 0.00 91 1018.0
20260502114241 68 84 6.0 9.0 0.00 0.00 0.00 91 1018.0
20260502114053 68 102 5.0 13.0 0.00 0.00 0.00 93 1018.0
20260502113239 68 70 8.0 13.0 0.00 0.00 0.00 93 1017.9
20260502112734 68 66 4.0 7.0 0.00 0.00 0.00 93 1017.9
20260502112555 68 78 4.0 7.0 0.00 0.00 0.00 93 1017.8
20260502112026 68 91 4.0 8.0 0.00 0.00 0.00 93 1017.8
20260502111234 68 87 4.0 8.0 0.00 0.00 0.00 93 1017.6
20260502111138 68 63 3.0 12.0 0.00 0.00 0.00 92 1017.1
20260502110801 68 68 4.0 8.0 0.00 0.00 0.00 93 1017.5
20260502110402 68 74 4.0 11.0 0.00 0.00 0.00 93 1017.3
20260502110110 69 67 5.0 12.0 0.00 0.00 0.00 93 1017.1
20260502105745 68 44 4.0 11.0 0.00 0.00 0.00 93 1017.3
20260502105418 68 95 6.0 11.0 0.00 0.00 0.00 92 1017.2
20260502105334 68 57 6.0 11.0 0.00 0.00 0.00 92 1017.3
20260502103231 69 53 2.0 6.0 0.00 0.00 0.00 94 1017.0
20260502102732 69 336 2.0 3.0 0.00 0.00 0.00 94 1016.9
20260502102234 69 336 1.0 2.0 0.00 0.00 0.00 94 1016.9
20260502101733 69 335 0.0 0.0 0.00 0.00 0.00 94 1016.8
20260502101233 69 335 0.0 4.0 0.00 0.00 0.00 94 1016.7
20260502100732 69 335 2.0 4.0 0.00 0.00 0.00 94 1016.6
20260502100232 69 334 1.0 3.0 0.00 0.00 0.00 95 1016.6
20260502091210 69 325 0.0 0.0 0.00 0.00 0.00 94 1016.1
20260502090706 69 325 0.0 0.0 0.00 0.00 0.00 94 1016.1
20260502090206 69 325 0.0 0.0 0.00 0.00 0.00 95 1016.1
20260502071204 69 325 2.0 3.0 0.00 0.00 0.00 94 1016.8
20260502070703 69 325 2.0 3.0 0.00 0.00 0.00 94 1017.0
20260502070204 69 325 2.0 4.0 0.00 0.00 0.00 94 1017.1
20260502065706 69 325 2.0 4.0 0.00 0.00 0.00 94 1017.2
20260502065205 69 325 2.0 5.0 0.00 0.00 0.00 94 1017.3
20260502064705 69 325 2.0 5.0 0.00 0.00 0.00 94 1017.5
20260502064650 69 325 1.0 3.0 0.00 0.00 0.00 93 1017.2
20260502064309 69 325 3.0 5.0 0.00 0.00 0.00 94 1017.5
20260502063914 69 325 2.0 4.0 0.00 0.00 0.00 93 1017.5
20260502063311 69 325 2.0 4.0 0.00 0.00 0.00 93 1017.5
20260502062509 69 324 1.0 3.0 0.00 0.00 0.00 93 1017.1
20260502062152 69 324 1.0 4.0 0.00 0.00 0.00 93 1017.3
20260502061759 69 324 0.0 3.0 0.00 0.00 0.00 93 1017.2
20260502060704 69 324 1.0 4.0 0.00 0.00 0.00 93 1017.3
20260502060205 69 325 2.0 5.0 0.00 0.00 0.00 93 1017.6
20260502055841 69 322 2.0 6.0 0.00 0.00 0.00 93 1017.8
20260502055805 69 323 2.0 6.0 0.00 0.00 0.00 93 1017.7
20260502054703 69 319 3.0 5.0 0.00 0.00 0.00 93 1017.9
20260502054158 70 319 2.0 4.0 0.00 0.00 0.00 93 1017.9
20260502054022 69 319 2.0 4.0 0.00 0.00 0.00 93 1017.9
20260502053153 69 318 2.0 4.0 0.00 0.00 0.00 93 1017.9
20260502052650 70 317 1.0 4.0 0.00 0.00 0.00 93 1018.1
20260502052145 70 318 2.0 4.0 0.00 0.00 0.00 93 1018.3
20260502051635 70 316 1.0 4.0 0.00 0.00 0.00 93 1018.5
20260502051132 70 316 1.0 5.0 0.00 0.00 0.00 93 1018.6
20260502050633 70 316 3.0 5.0 0.00 0.00 0.00 93 1018.7
20260502050120 70 314 2.0 5.0 0.00 0.00 0.00 93 1018.8
20260502045621 70 314 4.0 5.0 0.00 0.00 0.00 93 1018.8
20260502045112 70 316 2.0 5.0 0.00 0.00 0.00 93 1018.8
20260502045041 70 313 4.0 6.0 0.00 0.00 0.00 92 1018.7
20260502045036 70 315 2.0 6.0 0.00 0.00 0.00 92 1018.8
20260502043604 70 324 2.0 5.0 0.00 0.00 0.00 92 1018.6
20260502043106 70 325 2.0 4.0 0.00 0.00 0.00 92 1018.5
20260502042602 70 325 2.0 4.0 0.00 0.00 0.00 92 1018.6
20260502042104 70 325 1.0 4.0 0.00 0.00 0.00 92 1018.6
20260502042058 70 324 2.0 5.0 0.00 0.00 0.00 93 1018.6
20260502042052 70 324 0.0 3.0 0.00 0.00 0.00 93 1018.7
20260502040603 70 324 3.0 5.0 0.00 0.00 0.00 93 1018.6
20260502035604 70 323 0.0 4.0 0.00 0.00 0.00 93 1018.7
20260502035103 70 323 2.0 6.0 0.00 0.00 0.00 93 1018.6
20260502034916 70 323 2.0 6.0 0.00 0.00 0.00 92 1018.6
20260502034103 70 323 3.0 6.0 0.00 0.00 0.00 92 1018.5
20260502033724 70 308 4.0 8.0 0.00 0.00 0.00 92 1018.6
20260502033657 70 311 3.0 5.0 0.00 0.00 0.00 92 1018.5
20260502032606 70 318 3.0 8.0 0.00 0.00 0.00 92 1018.6
20260502032559 70 316 4.0 8.0 0.00 0.00 0.00 91 1018.6
20260502032555 70 328 5.0 8.0 0.00 0.00 0.00 92 1018.6
20260502032246 70 338 4.0 9.0 0.00 0.00 0.00 92 1018.6
20260502032158 70 315 4.0 9.0 0.00 0.00 0.00 92 1018.6
20260502030104 70 300 3.0 8.0 0.00 0.00 0.00 92 1018.6
20260502025755 71 340 2.0 5.0 0.00 0.00 0.00 92 1018.6
20260502025706 70 339 4.0 6.0 0.00 0.00 0.00 91 1018.7
20260502024605 71 9 4.0 5.0 0.00 0.00 0.00 92 1018.6
20260502024421 71 15 0.0 3.0 0.00 0.00 0.00 92 1018.6
20260502023603 71 15 1.0 4.0 0.00 0.00 0.00 91 1018.3
20260502023413 71 15 0.0 4.0 0.00 0.00 0.00 91 1018.3
20260502022603 71 15 1.0 3.0 0.00 0.00 0.00 91 1018.1
20260502022104 71 13 0.0 1.0 0.00 0.00 0.00 91 1018.1
20260502021603 71 13 0.0 2.0 0.00 0.00 0.00 91 1018.1
20260502021105 71 13 0.0 3.0 0.00 0.00 0.00 91 1018.0
20260502020604 71 13 2.0 3.0 0.00 0.00 0.00 91 1017.9
20260502020240 71 13 1.0 3.0 0.00 0.00 0.00 91 1017.6
20260502020158 71 13 1.0 2.0 0.00 0.00 0.00 91 1017.8
20260502015104 71 13 2.0 3.0 0.00 0.00 0.00 90 1017.2
20260502014557 71 13 1.0 3.0 0.00 0.00 0.00 90 1017.0
20260502014053 71 14 2.0 3.0 0.00 0.00 0.00 90 1016.7
20260502013553 71 13 1.0 3.0 0.00 0.00 0.00 90 1016.7
20260502013050 71 13 1.0 3.0 0.00 0.00 0.00 90 1016.8
20260502012545 71 13 1.0 4.0 0.00 0.00 0.00 90 1016.7
20260502012505 71 11 2.0 3.0 0.00 0.00 0.00 89 1016.6
20260502012128 71 13 1.0 4.0 0.00 0.00 0.00 90 1016.7
20260502011355 71 11 0.0 1.0 0.00 0.00 0.00 89 1016.7
20260502010849 71 10 0.0 3.0 0.00 0.00 0.00 89 1016.7
20260502010038 71 10 1.0 3.0 0.00 0.00 0.00 89 1016.7
20260502005536 71 10 0.0 4.0 0.00 0.00 0.00 89 1016.6
20260502005032 71 9 2.0 4.0 0.00 0.00 0.00 89 1016.7
20260502004532 71 92 1.0 3.0 0.00 0.00 0.00 89 1016.7